Regional Weather Roundup
Issued by NWS

Home | Current Version | Previous Version | Text Only | Print | Product List | Glossary Off
Versions: 1 2 3 4 5 6 7 8 9 10 11 12 13 14 15 16 17 18 19 20 21 22 23 24 25 26 27 28 29 30 31 32 33 34 35 36 37 38 39 40 41 42 43 44 45 46 47 48 49 50

000
ASUS43 KOAX 271010
RWRNE

WEATHER ROUNDUP FOR NEBRASKA
NATIONAL WEATHER SERVICE OMAHA NE
500 AM CDT SUN MAY 27 2018

NOTES: SATELLITE DATA IS BEING USED TO AUGMENT CLOUD COVER ABOVE
       12000 FEET.
       "FAIR" INDICATES FEW OR NO CLOUDS BELOW 12,000 FEET WITH NO
       SIGNIFICANT WEATHER AND/OR OBSTRUCTIONS TO VISIBILITY.


NEZ001>004-019>022-054>056-271100-
NEBRASKA PANHANDLE

CITY           SKY/WX    TMP DP  RH WIND       PRES   REMARKS
SCOTTSBLUFF    CLOUDY    68  52  56 E8        29.77R
ALLIANCE       CLOUDY    63  50  62 SE13      29.77S
CHADRON        CLOUDY    73  48  41 S16G26    29.69S
GORDON         FAIR      73  49  42 S16G24    29.76S
KIMBALL        CLOUDY    66  52  61 S10       29.83R
SIDNEY         CLOUDY    68  53  58 S12       29.82R
$$

NEZ057>060-069>072-079>082-271100-
SOUTHWEST NEBRASKA

CITY           SKY/WX    TMP DP  RH WIND       PRES   REMARKS
NORTH PLATTE   CLOUDY    70  55  59 S7        29.83S
IMPERIAL       CLOUDY    70  55  59 S15       29.82S
LEXINGTON      CLOUDY    69  57  65 S8        29.85S
MCCOOK         CLOUDY    69  58  67 VRB6      29.84R
OGALLALA       CLOUDY    69  53  57 S15G21    29.80R
$$

NEZ005>010-023>029-035>040-094-271100-
NORTH CENTRAL NEBRASKA

CITY           SKY/WX    TMP DP  RH WIND       PRES   REMARKS
VALENTINE      MOCLDY    74  53  48 S18G26    29.77R
AINSWORTH      MOCLDY    69  56  65 S12       29.80S
BROKEN BOW     CLOUDY    71  55  56 S8        29.84R
O`NEILL        MOCLDY    70  59  69 S6        29.80S
ORD            MOCLDY    66  57  72 SW10      29.80S
THEDFORD       CLOUDY    70  55  58 S13       29.83S
$$

NEZ041-046>049-061>064-073>077-083>087-271100-
SOUTH CENTRAL NEBRASKA

CITY           SKY/WX    TMP DP  RH WIND       PRES   REMARKS
GRAND ISLAND   MOCLDY    74  58  57 SW13      29.84R
AURORA         CLOUDY    70  57  64 SW9       29.84R
HASTINGS       CLOUDY    73  59  61 S8        29.85R
HEBRON         CLOUDY    72  61  69 SW6       29.84R
HOLDREGE       MOCLDY    69  58  67 S9        29.86R
KEARNEY        PTCLDY    70  58  65 SW9       29.85R
YORK           PTCLDY    68  61  77 SW7       29.83R
$$

NEZ011>018-030>034-042>045-271100-
NORTHEAST NEBRASKA

CITY           SKY/WX    TMP DP  RH WIND       PRES   REMARKS
NORFOLK        PTCLDY    64  59  83 CALM      29.79R
ALBION         PTCLDY    71  59  66 CALM      29.82R
BLAIR          CLEAR     77  58  53 S3        29.81R
COLUMBUS       PTCLDY    67  60  78 SE3       29.81R
FREMONT        CLEAR     74  61  63 CALM      29.81R
TEKAMAH        CLEAR     68  60  75 S5        29.79R
WAYNE          CLEAR     63  62  96 CALM      29.79R
$$

NEZ050>053-065>068-078-088>093-271100-
SOUTHEAST NEBRASKA

CITY           SKY/WX    TMP DP  RH WIND       PRES   REMARKS
LINCOLN        CLEAR     68  61  78 S5        29.81R
OMAHA EPPLEY   CLEAR     74  60  61 SE3       29.79S
BEATRICE       CLEAR     73  64  73 S5        29.83R
FALLS CITY     CLEAR     74  63  68 CALM      29.81R
NEBRASKA CITY  CLEAR     74  62  66 SW12      29.81S
PLATTSMOUTH    CLEAR     77  60  55 SW6       29.81S
$$

NEZ044-045-051>053-067-271100-
OMAHA AREA

CITY           SKY/WX    TMP DP  RH WIND       PRES   REMARKS
OMAHA EPPLEY   CLEAR     74  60  61 SE3       29.79S
BLAIR          CLEAR     77  58  53 S3        29.81R
FREMONT        CLEAR     74  61  63 CALM      29.81R
MILLARD        CLEAR     70  64  81 CALM      29.81R
OFFUTT AFB     CLEAR     64  62  93 CALM      29.79R
PLATTSMOUTH    CLEAR     77  60  55 SW6       29.81S
WAHOO          FAIR      71  58  62 S8        29.81R
$$




USA.gov is the U.S. government's official web portal to all federal, state and local government web resources and services.